Wind_Speed
28 26 24 23 23 23 22 21 21 22 24 24 23 21 20 19 17 15 13 12 12 12 13 14 14 12 13 12 13 14 14 14 15 16 17 16 15 15 15 15 14 14 13 14
27 25 24 25 24 23 22 20 20 22 24 23 23 21 20 19 17 14 13 13 13 13 15 15 14 14 14 14 13 14 14 15 16 16 18 19 18 17 17 16 15 14 14 15
27 25 26 26 25 24 22 20 20 23 24 24 23 22 20 19 18 15 14 13 13 14 15 16 15 15 15 15 15 15 15 16 16 17 18 19 19 17 16 16 16 15 15 16
29 27 27 26 25 24 22 21 22 25 25 24 23 22 20 18 17 15 14 13 14 15 15 16 16 16 15 15 15 15 15 15 16 17 18 18 19 20 18 18 18 17 16 17
28 27 27 26 24 23 23 24 25 26 26 25 24 22 19 18 16 14 14 15 15 15 15 15 16 17 17 16 16 15 15 15 16 18 18 18 18 20 20 21 19 18 17 18
28 28 27 26 26 25 26 27 27 27 26 25 24 23 20 18 16 16 16 16 15 15 15 16 17 17 17 17 17 16 16 16 16 17 17 17 17 18 20 21 21 20 18 18
27 27 27 27 27 27 27 27 27 27 26 25 24 24 21 18 18 18 17 16 16 16 16 16 17 17 17 17 16 16 16 17 18 17 18 19 19 19 20 21 22 21 20 20
26 26 26 26 26 26 26 27 26 26 25 23 23 22 21 19 19 18 17 16 17 17 17 16 16 17 16 15 15 14 15 15 17 17 17 19 20 21 21 21 22 22 22 21
26 25 25 25 25 26 27 26 25 25 24 23 22 20 19 18 18 17 17 17 17 17 16 15 16 16 14 13 13 13 13 13 14 16 16 18 19 19 21 21 21 22 23 22
26 25 25 25 27 27 27 26 26 25 23 22 20 18 17 16 15 15 15 15 14 13 12 12 13 13 13 13 13 12 12 11 12 14 15 16 17 18 19 21 21 23 23 23
26 26 26 26 26 26 27 27 26 25 23 21 19 16 14 14 15 14 14 13 12 12 11 10 11 11 11 11 11 11 12 12 11 12 14 15 17 17 19 21 21 22 22 22
25 27 27 27 27 27 27 26 24 23 21 19 18 15 13 13 12 12 12 12 11 11 9 9 10 9 9 10 10 9 11 11 11 12 13 15 16 17 18 20 21 21 22 22
26 27 27 28 28 27 27 25 24 21 20 19 18 15 13 12 12 12 11 11 10 9 9 9 10 9 9 9 8 8 9 9 10 11 12 13 14 15 17 18 19 20 21 22
26 26 26 26 26 26 26 25 23 22 21 19 17 16 14 14 13 13 12 11 10 9 9 10 9 9 9 9 9 8 8 8 9 9 10 11 12 13 15 17 18 19 20 21
27 26 26 25 25 26 25 24 24 23 21 19 17 16 15 14 14 14 13 12 11 11 10 9 9 9 9 8 8 8 7 8 8 8 8 9 11 11 14 15 17 18 19 20
28 27 27 27 26 26 26 25 24 23 22 20 18 17 16 15 15 13 12 12 12 11 10 9 9 10 9 8 8 8 8 8 8 8 9 10 10 12 14 15 16 17 18 19
29 28 28 28 28 27 28 26 25 24 23 21 19 17 16 15 15 14 13 13 13 12 11 11 11 11 11 10 10 10 9 8 9 8 8 9 10 11 12 13 14 15 18 19
31 30 29 28 29 31 28 27 26 25 23 21 20 19 17 16 15 14 14 14 14 14 14 13 12 12 12 12 12 11 10 9 8 8 8 8 9 10 11 11 13 14 15 17
33 32 31 31 31 31 29 28 27 25 24 23 21 20 19 18 17 16 16 15 14 14 14 14 13 13 13 13 12 11 10 10 10 10 9 9 9 10 10 11 12 13 14 16
33 33 33 33 32 32 29 27 26 25 24 23 22 21 20 19 19 18 17 17 16 15 15 15 15 14 14 14 13 12 11 11 11 12 11 11 12 12 12 12 13 14 15 16
33 33 33 33 33 31 29 28 27 26 24 23 22 21 20 20 19 18 18 17 17 16 16 16 15 15 14 13 13 13 13 13 12 13 13 14 14 14 14 14 15 15 17 18
33 33 32 33 33 31 28 29 28 27 25 24 22 22 21 21 20 20 19 18 17 17 17 16 16 16 16 15 14 14 14 15 15 15 15 15 15 15 16 16 16 17 17 18
33 33 32 31 31 29 28 28 27 26 25 24 23 22 21 22 21 21 20 19 19 19 19 19 18 17 17 17 16 16 16 16 17 17 17 17 17 17 17 17 18 18 18 19
31 33 32 31 30 28 27 27 26 24 23 23 23 22 21 21 22 22 20 20 20 20 19 18 18 17 17 17 17 17 18 18 17 18 18 18 18 18 18 18 19 19 19 20
28 29 31 31 30 28 27 27 26 25 24 24 23 23 22 21 21 22 21 20 20 19 19 19 18 17 17 17 17 17 18 17 17 18 19 18 18 18 19 20 21 21 22 22
27 27 27 28 29 28 26 26 25 25 24 24 23 22 22 21 22 21 20 20 20 19 18 18 18 18 18 18 18 17 17 18 18 18 18 19 19 19 20 21 21 21 22 22
Wind_Direction
246 246 247 248 247 247 246 245 244 244 248 251 255 258 261 263 265 266 269 276 283 287 289 291 289 289 282 279 280 276 267 261 255 246 236 235 234 229 227 228 225 222 221 218
243 243 242 242 242 243 243 242 240 240 245 248 252 257 261 263 263 264 271 278 283 288 286 286 285 286 283 283 280 278 271 264 259 245 234 232 231 230 229 228 228 227 225 221
240 238 238 239 240 240 240 238 235 235 241 246 250 255 261 264 263 263 270 277 282 285 286 285 282 284 281 277 279 275 269 262 254 244 238 233 230 227 226 227 230 230 228 225
235 234 235 236 237 237 235 232 230 232 236 242 250 254 260 262 263 266 271 275 278 280 283 282 278 281 282 273 270 268 263 258 252 246 242 237 232 229 227 227 227 227 228 225
231 231 232 233 234 233 228 227 228 232 236 241 249 254 257 261 261 265 269 273 274 278 280 278 279 281 281 271 265 263 261 256 254 250 246 236 234 233 228 227 227 227 230 229
228 227 228 228 228 226 224 226 229 233 237 241 248 254 258 261 261 265 267 270 274 276 279 280 278 279 279 271 266 264 260 255 253 250 247 238 234 230 229 229 229 229 231 231
226 225 225 225 225 224 225 228 230 234 238 244 248 253 259 261 262 265 266 268 274 279 281 283 283 281 277 273 270 264 259 255 253 247 244 240 236 230 230 230 230 232 234 233
223 222 222 224 225 226 226 229 232 237 241 244 247 253 258 262 265 268 268 271 277 279 278 280 281 279 275 269 268 268 262 256 247 243 241 238 235 232 232 232 233 234 235 233
217 219 219 220 220 222 223 228 234 238 242 245 249 254 259 263 265 268 270 273 276 275 273 276 277 282 277 271 267 267 264 258 244 243 243 238 237 235 230 233 235 235 234 233
212 214 215 215 216 219 221 226 231 236 241 246 250 254 258 264 266 268 270 271 275 272 272 277 282 286 274 267 267 270 269 261 246 243 243 240 237 234 233 232 235 235 233 234
209 210 212 214 216 218 222 225 231 237 242 245 249 252 259 266 268 265 267 270 271 269 271 275 283 291 280 273 271 275 273 265 255 245 242 239 235 237 234 232 232 232 231 231
208 210 212 213 215 218 222 225 230 235 241 245 251 251 256 261 261 263 267 268 272 268 266 272 278 282 286 282 279 278 280 272 256 246 243 241 239 238 236 233 230 231 230 230
209 210 211 213 216 219 222 225 228 233 239 244 249 249 250 254 256 259 263 264 269 268 267 267 276 279 288 290 283 281 275 272 257 248 245 240 238 236 233 231 230 228 228 228
214 213 215 217 220 223 225 226 228 233 239 246 252 252 251 252 255 259 263 264 265 264 267 269 272 273 280 285 285 286 272 262 251 254 248 239 237 233 229 226 227 228 229 229
216 215 215 215 217 221 226 228 230 235 242 248 252 252 252 257 256 259 262 263 260 261 264 271 269 268 273 277 283 289 270 259 253 254 250 243 238 235 229 229 229 230 230 230
219 217 215 216 217 222 226 228 230 235 241 247 251 251 253 256 257 257 259 260 258 260 263 267 269 273 277 275 277 282 274 257 253 257 254 250 248 242 235 232 232 233 232 232
222 222 220 220 221 225 227 229 234 239 244 248 250 249 252 255 258 258 260 261 257 258 263 263 267 273 277 275 275 271 269 261 256 257 257 251 247 241 238 238 241 241 237 238
225 226 227 226 226 229 230 233 238 242 245 247 247 247 248 255 257 262 263 263 262 260 263 265 266 268 270 270 270 270 262 257 253 256 261 256 250 247 245 248 249 246 242 240
227 229 230 231 231 234 234 235 238 242 245 247 248 249 249 254 259 261 260 262 264 260 262 263 267 269 266 266 266 263 258 255 252 255 259 258 255 253 248 249 251 250 249 247
229 229 231 233 233 234 235 238 241 242 244 246 247 250 252 254 258 259 257 259 262 263 263 262 265 266 267 264 262 257 255 256 256 257 257 259 256 256 254 253 255 257 254 254
229 230 231 232 235 236 237 239 243 244 244 245 247 249 253 254 254 254 254 257 260 263 262 262 265 265 265 265 261 256 254 256 258 259 258 258 256 257 256 257 260 263 262 261
227 229 229 232 235 237 239 241 242 244 243 244 245 248 250 252 252 251 252 255 257 260 260 260 262 261 259 261 260 260 260 258 258 259 258 256 256 256 258 261 265 267 266 266
229 228 230 232 234 236 238 239 240 242 242 244 246 245 248 249 247 249 252 255 256 257 257 256 256 258 259 258 258 261 259 260 258 257 255 255 256 257 260 264 267 268 268 269
229 228 230 232 234 233 234 235 238 239 240 242 244 243 246 246 247 250 254 256 257 258 257 255 255 257 258 258 258 258 260 261 259 256 255 255 258 260 262 264 266 267 267 268
228 227 228 230 231 233 234 234 237 239 241 242 243 242 243 246 248 250 252 253 252 256 253 253 254 254 255 256 257 257 259 259 259 258 257 257 260 262 265 268 266 267 269 270
226 226 227 229 230 230 231 232 235 237 238 237 238 239 240 243 247 247 249 249 249 251 250 251 253 255 254 253 252 253 256 258 259 260 260 260 260 262 266 268 268 269 272 273
Height
5829 5833 5836 5838 5840 5842 5844 5846 5848 5849 5849 5851 5852 5854 5856 5857 5858 5859 5860 5860 5860 5860 5860 5859 5858 5858 5858 5857 5857 5857 5857 5858 5859 5860 5862 5863 5865 5866 5868 5870 5872 5874 5876 5879
5824 5828 5831 5831 5834 5837 5839 5842 5844 5845 5846 5847 5849 5851 5852 5853 5854 5856 5856 5857 5857 5857 5856 5856 5855 5855 5855 5854 5854 5854 5854 5854 5855 5856 5858 5860 5861 5863 5865 5868 5870 5872 5874 5876
5818 5823 5824 5827 5830 5832 5835 5838 5840 5841 5842 5843 5846 5848 5849 5850 5851 5852 5853 5853 5853 5853 5852 5852 5852 5852 5852 5851 5851 5850 5850 5850 5850 5852 5853 5855 5857 5860 5862 5865 5867 5870 5871 5874
5811 5815 5818 5821 5825 5828 5831 5834 5835 5837 5838 5840 5842 5844 5846 5846 5848 5849 5850 5850 5850 5850 5849 5848 5848 5848 5847 5847 5847 5846 5846 5846 5846 5847 5849 5851 5854 5857 5859 5861 5864 5866 5868 5871
5806 5809 5813 5817 5821 5824 5827 5828 5831 5832 5834 5837 5838 5840 5843 5843 5844 5845 5846 5846 5847 5846 5845 5845 5844 5843 5843 5843 5842 5842 5842 5842 5843 5843 5845 5847 5849 5852 5855 5857 5860 5863 5865 5867
5800 5804 5808 5812 5815 5818 5821 5823 5826 5828 5830 5833 5836 5837 5839 5840 5841 5842 5842 5842 5842 5842 5842 5841 5839 5839 5838 5838 5838 5838 5838 5838 5839 5839 5841 5843 5845 5847 5851 5853 5856 5859 5861 5863
5794 5799 5803 5807 5810 5813 5816 5820 5823 5825 5827 5830 5832 5833 5836 5836 5837 5837 5838 5838 5838 5838 5837 5837 5836 5835 5834 5834 5834 5834 5833 5833 5834 5835 5837 5839 5841 5843 5846 5850 5853 5855 5858 5860
5790 5795 5799 5802 5806 5809 5812 5816 5820 5822 5824 5827 5828 5829 5832 5832 5833 5833 5834 5834 5834 5834 5834 5833 5832 5831 5830 5830 5830 5829 5829 5828 5829 5830 5832 5835 5836 5839 5841 5845 5848 5851 5853 5856
5786 5791 5794 5798 5802 5805 5808 5812 5816 5818 5820 5822 5824 5826 5828 5828 5829 5829 5830 5831 5831 5830 5830 5830 5829 5828 5827 5827 5826 5826 5825 5824 5825 5827 5828 5830 5832 5834 5837 5840 5843 5846 5848 5851
5781 5786 5790 5794 5797 5801 5805 5808 5811 5814 5816 5819 5821 5822 5825 5825 5825 5826 5827 5827 5827 5827 5827 5826 5826 5825 5824 5824 5824 5823 5822 5821 5822 5823 5824 5826 5827 5830 5832 5835 5838 5841 5844 5846
5777 5782 5786 5789 5793 5797 5801 5805 5807 5810 5813 5816 5817 5822 5822 5822 5822 5822 5823 5824 5824 5824 5824 5824 5823 5822 5822 5821 5820 5820 5820 5819 5819 5820 5822 5823 5825 5826 5828 5831 5834 5836 5839 5842
5773 5777 5781 5785 5789 5793 5797 5801 5804 5807 5810 5812 5814 5820 5818 5818 5818 5819 5820 5821 5821 5821 5821 5821 5821 5820 5819 5819 5818 5817 5817 5817 5817 5818 5819 5820 5821 5823 5825 5827 5829 5831 5834 5838
5769 5773 5777 5781 5787 5790 5793 5796 5800 5803 5806 5808 5810 5816 5814 5815 5816 5816 5817 5818 5819 5819 5818 5818 5818 5818 5817 5816 5815 5815 5815 5815 5815 5815 5816 5817 5818 5819 5821 5823 5825 5828 5830 5833
5766 5770 5775 5779 5783 5786 5789 5793 5796 5799 5801 5804 5807 5809 5811 5812 5813 5814 5814 5815 5816 5816 5816 5816 5815 5815 5815 5814 5814 5813 5813 5813 5813 5813 5813 5815 5816 5817 5818 5820 5822 5825 5827 5830
5762 5766 5770 5775 5779 5782 5786 5789 5792 5795 5798 5801 5803 5805 5807 5808 5810 5810 5811 5812 5813 5813 5813 5813 5813 5813 5813 5813 5812 5811 5811 5811 5811 5812 5812 5813 5814 5815 5816 5818 5820 5822 5824 5827
5757 5761 5766 5770 5774 5778 5781 5785 5788 5791 5794 5796 5799 5801 5803 5804 5806 5807 5808 5809 5810 5810 5810 5810 5810 5810 5810 5810 5810 5809 5809 5809 5810 5810 5811 5811 5812 5813 5814 5816 5818 5819 5821 5823
5752 5757 5761 5765 5769 5772 5776 5780 5783 5786 5789 5793 5795 5798 5799 5801 5802 5803 5804 5805 5806 5807 5807 5807 5807 5807 5807 5807 5807 5807 5807 5807 5808 5808 5809 5809 5810 5811 5812 5814 5815 5816 5818 5820
5747 5752 5756 5760 5764 5767 5773 5775 5779 5782 5785 5788 5791 5793 5795 5797 5798 5799 5800 5801 5802 5803 5804 5804 5804 5804 5804 5804 5804 5804 5805 5805 5806 5807 5807 5808 5809 5809 5810 5811 5812 5814 5815 5816
5741 5746 5750 5754 5757 5761 5766 5770 5774 5777 5780 5783 5786 5788 5790 5792 5794 5795 5796 5797 5798 5799 5800 5800 5800 5800 5800 5800 5800 5801 5802 5803 5804 5805 5805 5806 5807 5807 5808 5809 5810 5811 5812 5813
5734 5739 5744 5747 5751 5755 5762 5765 5768 5772 5774 5778 5781 5783 5785 5787 5789 5791 5791 5792 5793 5794 5795 5796 5796 5796 5796 5796 5797 5798 5799 5800 5801 5802 5803 5804 5804 5805 5805 5806 5807 5808 5808 5809
5727 5731 5736 5741 5745 5750 5755 5759 5763 5767 5771 5773 5775 5777 5779 5782 5784 5786 5787 5788 5789 5789 5790 5791 5791 5792 5792 5792 5793 5795 5796 5797 5798 5799 5799 5800 5801 5801 5802 5802 5803 5804 5804 5805
5720 5725 5729 5734 5738 5746 5749 5753 5757 5760 5764 5766 5769 5772 5774 5776 5778 5780 5781 5783 5784 5785 5785 5786 5787 5787 5788 5789 5790 5791 5792 5793 5794 5795 5796 5796 5797 5797 5798 5798 5799 5799 5799 5800
5714 5719 5723 5729 5735 5739 5743 5747 5751 5754 5757 5760 5763 5766 5768 5771 5773 5775 5776 5777 5778 5779 5780 5781 5782 5783 5784 5785 5786 5787 5788 5788 5789 5790 5791 5792 5793 5793 5793 5794 5794 5794 5795 5795
5707 5712 5717 5722 5727 5732 5736 5741 5744 5748 5751 5754 5757 5760 5762 5765 5767 5769 5771 5772 5773 5773 5775 5776 5777 5778 5779 5780 5781 5782 5783 5783 5784 5785 5786 5787 5788 5788 5788 5789 5789 5789 5789 5789
5702 5706 5711 5716 5721 5726 5730 5734 5738 5742 5745 5748 5751 5754 5756 5759 5761 5763 5765 5766 5767 5768 5770 5771 5772 5773 5775 5776 5776 5777 5778 5779 5780 5780 5781 5782 5782 5783 5783 5783 5783 5783 5783 5783
5696 5701 5706 5711 5716 5720 5724 5728 5732 5736 5739 5742 5745 5748 5751 5753 5755 5757 5759 5760 5761 5763 5764 5765 5767 5768 5769 5770 5771 5772 5773 5774 5774 5775 5776 5776 5777 5777 5777 5777 5777 5777 5777 5777